LOT9RP LDRI-EPKK

Flight info

Callsign LOT9RP
Flight time 1h 8m
Altitude 37000
Route ALIVO DCT TISKO DCT GOTAR DCT KUVEX DCT NIDOK/N0399F230 M985 LIPTY/N0345F130 R23 MEBAN
Aircraft E195/M-SDE3GILORVW/S

Departure

Time 2026-04-22 11:19
Airport Rijeka Airport (LDRI)

Arrival

Time 2026-04-22 12:27
Airport Kraków John Paul II International Airport (EPKK)
Time Latitude Longitude Altitude Speed Heading
2026-04-22 11:12 45.21957 14.57101 267 ft 0 kts 103°
2026-04-22 11:13 45.21956 14.57101 267 ft 0 kts 107°
2026-04-22 11:14 45.21955 14.57103 267 ft 0 kts 121°
2026-04-22 11:14 45.21952 14.57104 267 ft 1 kts 144°
2026-04-22 11:14 45.21945 14.57100 267 ft 1 kts 195°
2026-04-22 11:14 45.21938 14.57078 267 ft 4 kts 259°
2026-04-22 11:15 45.21955 14.57036 267 ft 6 kts 312°
2026-04-22 11:15 45.21989 14.56994 267 ft 7 kts 322°
2026-04-22 11:15 45.22013 14.56936 266 ft 8 kts 287°
2026-04-22 11:15 45.22034 14.56826 262 ft 14 kts 285°
2026-04-22 11:16 45.22063 14.56690 263 ft 15 kts 292°
2026-04-22 11:16 45.22131 14.56601 266 ft 13 kts 327°
2026-04-22 11:16 45.22204 14.56526 266 ft 14 kts 324°
2026-04-22 11:16 45.22286 14.56441 266 ft 15 kts 324°
2026-04-22 11:17 45.22375 14.56353 265 ft 17 kts 322°
2026-04-22 11:17 45.22475 14.56243 262 ft 14 kts 324°
2026-04-22 11:17 45.22554 14.56203 262 ft 12 kts 355°
2026-04-22 11:17 45.22560 14.56153 261 ft 4 kts 184°
2026-04-22 11:18 45.22542 14.56172 262 ft 4 kts 144°
2026-04-22 11:18 45.22411 14.56308 263 ft 50 kts 143°
2026-04-22 11:18 45.21944 14.56793 262 ft 117 kts 144°
2026-04-22 11:18 45.21127 14.57646 270 ft 172 kts 143°
2026-04-22 11:19 45.20084 14.58664 860 ft 187 kts 144°
2026-04-22 11:19 45.18992 14.59604 1461 ft 175 kts 146°
2026-04-22 11:19 45.17903 14.60436 1667 ft 190 kts 147°
2026-04-22 11:19 45.16740 14.61280 2356 ft 187 kts 147°
2026-04-22 11:20 45.15555 14.62151 2812 ft 197 kts 145°
2026-04-22 11:20 45.14331 14.63127 3160 ft 210 kts 142°
2026-04-22 11:20 45.13207 14.64512 3402 ft 221 kts 127°
2026-04-22 11:20 45.12282 14.66226 3865 ft 216 kts 106°
2026-04-22 11:21 45.12208 14.68270 4345 ft 210 kts 68°
2026-04-22 11:21 45.13103 14.69849 4889 ft 216 kts 32°
2026-04-22 11:21 45.14629 14.70364 5177 ft 239 kts
2026-04-22 11:21 45.16293 14.70556 5665 ft 245 kts 13°
2026-04-22 11:22 45.17957 14.71122 6208 ft 250 kts 18°
2026-04-22 11:22 45.19591 14.71863 6357 ft 243 kts 20°
2026-04-22 11:22 45.21209 14.72729 6358 ft 254 kts 24°
2026-04-22 11:22 45.22796 14.73703 7119 ft 241 kts 26°
2026-04-22 11:23 45.24321 14.74715 7673 ft 243 kts 25°
2026-04-22 11:23 45.25891 14.75778 7993 ft 254 kts 25°
2026-04-22 11:23 45.27477 14.76861 8594 ft 253 kts 25°
2026-04-22 11:23 45.29059 14.77977 9080 ft 258 kts 27°
2026-04-22 11:24 45.30604 14.79256 9511 ft 266 kts 29°
2026-04-22 11:24 45.32187 14.80595 10137 ft 267 kts 28°
2026-04-22 11:24 45.33829 14.81983 10307 ft 283 kts 28°
2026-04-22 11:24 45.35552 14.83432 10635 ft 291 kts 29°
2026-04-22 11:25 45.37297 14.84919 11211 ft 292 kts 29°
2026-04-22 11:25 45.39029 14.86396 11803 ft 293 kts 28°
2026-04-22 11:25 45.40803 14.87891 12220 ft 298 kts 29°
2026-04-22 11:25 45.42585 14.89413 12774 ft 300 kts 29°
2026-04-22 11:26 45.44373 14.90948 13360 ft 302 kts 29°
2026-04-22 11:26 45.46175 14.92478 13790 ft 308 kts 29°
2026-04-22 11:26 45.48019 14.94048 14312 ft 309 kts 29°
2026-04-22 11:26 45.49872 14.95625 14815 ft 312 kts 29°
2026-04-22 11:27 45.51742 14.97218 15291 ft 314 kts 29°
2026-04-22 11:27 45.53621 14.98828 15778 ft 316 kts 29°
2026-04-22 11:27 45.55518 15.00443 16267 ft 318 kts 29°
2026-04-22 11:27 45.57425 15.02074 16759 ft 321 kts 29°
2026-04-22 11:28 45.59334 15.03708 17330 ft 321 kts 30°
2026-04-22 11:28 45.61253 15.05356 17819 ft 323 kts 30°
2026-04-22 11:28 45.63161 15.06991 18325 ft 325 kts 30°
2026-04-22 11:28 45.65104 15.08660 18785 ft 327 kts 30°
2026-04-22 11:29 45.67065 15.10344 19219 ft 330 kts 30°
2026-04-22 11:29 45.69038 15.12039 19657 ft 332 kts 30°
2026-04-22 11:29 45.71024 15.13748 20087 ft 335 kts 30°
2026-04-22 11:29 45.73025 15.15470 20510 ft 337 kts 30°
2026-04-22 11:30 45.75040 15.17207 20935 ft 339 kts 30°
2026-04-22 11:30 45.77068 15.18956 21359 ft 342 kts 29°
2026-04-22 11:30 45.79110 15.20717 21750 ft 344 kts 29°
2026-04-22 11:30 45.81140 15.22473 22158 ft 346 kts 30°
2026-04-22 11:31 45.83208 15.24262 22547 ft 349 kts 29°
2026-04-22 11:31 45.85292 15.26064 22936 ft 351 kts 29°
2026-04-22 11:31 45.87387 15.27880 23328 ft 353 kts 29°
2026-04-22 11:31 45.89498 15.29709 23691 ft 356 kts 30°
2026-04-22 11:32 45.91622 15.31553 24007 ft 358 kts 29°
2026-04-22 11:32 45.93757 15.33407 24335 ft 360 kts 30°
2026-04-22 11:32 45.95906 15.35272 24655 ft 361 kts 30°
2026-04-22 11:32 45.98057 15.37151 24976 ft 363 kts 29°
2026-04-22 11:33 46.00198 15.39012 25248 ft 366 kts 29°
2026-04-22 11:33 46.02380 15.40916 25552 ft 368 kts 29°
2026-04-22 11:33 46.04575 15.42829 25837 ft 370 kts 29°
2026-04-22 11:33 46.06785 15.44757 26093 ft 373 kts 29°
2026-04-22 11:34 46.09005 15.46702 26403 ft 374 kts 29°
2026-04-22 11:34 46.11241 15.48656 26657 ft 377 kts 29°
2026-04-22 11:34 46.13490 15.50622 26952 ft 379 kts 29°
2026-04-22 11:34 46.15747 15.52608 27227 ft 382 kts 29°
2026-04-22 11:35 46.18022 15.54601 27527 ft 383 kts 29°
2026-04-22 11:35 46.20286 15.56594 27791 ft 385 kts 29°
2026-04-22 11:35 46.22569 15.58599 28059 ft 387 kts 29°
2026-04-22 11:35 46.24895 15.60648 28323 ft 390 kts 29°
2026-04-22 11:36 46.27188 15.62667 28569 ft 391 kts 29°
2026-04-22 11:36 46.29532 15.64735 28835 ft 394 kts 29°
2026-04-22 11:36 46.31859 15.66785 29125 ft 395 kts 29°
2026-04-22 11:36 46.34220 15.68877 29351 ft 398 kts 29°
2026-04-22 11:37 46.36592 15.70974 29606 ft 399 kts 29°
2026-04-22 11:37 46.38963 15.73075 29839 ft 402 kts 29°
2026-04-22 11:37 46.41357 15.75194 29853 ft 409 kts 29°
2026-04-22 11:37 46.43792 15.77359 30039 ft 411 kts 29°
2026-04-22 11:38 46.46196 15.79492 30331 ft 411 kts 29°
2026-04-22 11:38 46.48658 15.81685 30569 ft 411 kts 29°
2026-04-22 11:38 46.53514 15.86010 31077 ft 410 kts 30°
2026-04-22 11:39 46.55939 15.88173 31301 ft 411 kts 30°
2026-04-22 11:39 46.58372 15.90345 31526 ft 411 kts 29°
2026-04-22 11:39 46.60785 15.92503 31739 ft 411 kts 29°
2026-04-22 11:39 46.63226 15.94686 31940 ft 411 kts 29°
2026-04-22 11:40 46.65679 15.96886 32150 ft 412 kts 29°
2026-04-22 11:40 46.68068 15.99092 32366 ft 413 kts 33°
2026-04-22 11:40 46.70357 16.01645 32612 ft 412 kts 35°
2026-04-22 11:40 46.72624 16.04183 32806 ft 413 kts 36°
2026-04-22 11:41 46.74862 16.06756 33017 ft 413 kts 36°
2026-04-22 11:41 46.77115 16.09342 33230 ft 413 kts 36°
2026-04-22 11:41 46.79398 16.11972 33442 ft 409 kts 36°
2026-04-22 11:41 46.81579 16.14484 33524 ft 404 kts 36°
2026-04-22 11:42 46.86023 16.19605 33613 ft 413 kts 36°
2026-04-22 11:42 46.90537 16.24823 33602 ft 410 kts 36°
2026-04-22 11:43 46.95003 16.29994 33615 ft 411 kts 36°
2026-04-22 11:43 46.99486 16.35197 33595 ft 410 kts 36°
2026-04-22 11:44 47.03942 16.40378 33618 ft 411 kts 36°
2026-04-22 11:44 47.08407 16.45580 33596 ft 409 kts 36°
2026-04-22 11:45 47.12841 16.50756 33613 ft 410 kts 37°
2026-04-22 11:45 47.17286 16.55959 33594 ft 409 kts 37°
2026-04-22 11:46 47.21741 16.61187 33609 ft 410 kts 37°
2026-04-22 11:46 47.26160 16.66383 33590 ft 405 kts 37°
2026-04-22 11:47 47.30580 16.71590 33604 ft 406 kts 37°
2026-04-22 11:47 47.34973 16.76776 33596 ft 407 kts 37°
2026-04-22 11:48 47.39380 16.81990 33603 ft 407 kts 37°
2026-04-22 11:48 47.43788 16.87219 33609 ft 406 kts 37°
2026-04-22 11:49 47.48183 16.92445 33596 ft 407 kts 37°
2026-04-22 11:49 47.52583 16.97687 33604 ft 407 kts 37°
2026-04-22 11:50 47.56984 17.02940 33409 ft 405 kts 37°
2026-04-22 11:50 47.61339 17.08151 33279 ft 405 kts 37°
2026-04-22 11:51 47.63533 17.10780 33177 ft 405 kts 37°
2026-04-22 11:51 47.65720 17.13405 33199 ft 405 kts 38°
2026-04-22 11:51 47.70109 17.18682 33195 ft 406 kts 38°
2026-04-22 11:52 47.74493 17.23960 33206 ft 406 kts 38°
2026-04-22 11:52 47.78843 17.29210 33181 ft 404 kts 38°
2026-04-22 11:53 47.83202 17.34487 33186 ft 404 kts 38°
2026-04-22 11:53 47.87564 17.39778 33182 ft 404 kts 38°
2026-04-22 11:54 47.91849 17.45206 33179 ft 405 kts 41°
2026-04-22 11:54 47.95977 17.50924 33183 ft 405 kts 42°
2026-04-22 11:55 48.00036 17.56610 33169 ft 403 kts 42°
2026-04-22 11:55 48.04122 17.62348 33173 ft 403 kts 42°
2026-04-22 11:56 48.08202 17.68089 33174 ft 403 kts 42°
2026-04-22 11:56 48.12280 17.73840 33167 ft 403 kts 42°
2026-04-22 11:57 48.16360 17.79606 33171 ft 403 kts 42°
2026-04-22 11:57 48.20426 17.85367 33170 ft 403 kts 42°
2026-04-22 11:58 48.24473 17.91113 33167 ft 403 kts 42°
2026-04-22 11:58 48.28534 17.96890 33173 ft 403 kts 42°
2026-04-22 11:59 48.32584 18.02665 33168 ft 402 kts 42°
2026-04-22 11:59 48.36645 18.08470 32674 ft 402 kts 43°
2026-04-22 12:00 48.38661 18.11359 32278 ft 399 kts 43°
2026-04-22 12:00 48.40668 18.14235 31894 ft 398 kts 43°
2026-04-22 12:00 48.42670 18.17110 31526 ft 398 kts 43°
2026-04-22 12:00 48.44673 18.19986 31157 ft 398 kts 43°
2026-04-22 12:01 48.46648 18.22829 30806 ft 398 kts 43°
2026-04-22 12:01 48.48648 18.25707 30451 ft 397 kts 43°
2026-04-22 12:01 48.50644 18.28587 30067 ft 396 kts 43°
2026-04-22 12:01 48.52629 18.31451 29643 ft 393 kts 43°
2026-04-22 12:02 48.54584 18.34279 29210 ft 386 kts 43°
2026-04-22 12:02 48.56504 18.37054 28774 ft 380 kts 43°
2026-04-22 12:02 48.58405 18.39810 28354 ft 378 kts 43°
2026-04-22 12:02 48.60300 18.42554 27941 ft 376 kts 43°
2026-04-22 12:03 48.62182 18.45285 27535 ft 374 kts 43°
2026-04-22 12:03 48.64023 18.47962 27136 ft 371 kts 44°
2026-04-22 12:03 48.65876 18.50657 26745 ft 369 kts 43°
2026-04-22 12:03 48.67717 18.53340 26352 ft 366 kts 44°
2026-04-22 12:04 48.69547 18.56002 25960 ft 364 kts 44°
2026-04-22 12:04 48.71359 18.58653 25579 ft 361 kts 44°
2026-04-22 12:04 48.73162 18.61283 25208 ft 360 kts 44°
2026-04-22 12:04 48.74959 18.63913 24833 ft 358 kts 44°
2026-04-22 12:05 48.76745 18.66526 24457 ft 356 kts 44°
2026-04-22 12:05 48.78516 18.69122 24040 ft 354 kts 44°
2026-04-22 12:05 48.80244 18.71657 23557 ft 346 kts 44°
2026-04-22 12:05 48.81940 18.74148 22979 ft 333 kts 44°
2026-04-22 12:06 48.83573 18.76549 22433 ft 322 kts 44°
2026-04-22 12:06 48.85136 18.78905 21896 ft 312 kts 45°
2026-04-22 12:06 48.86680 18.81162 21364 ft 304 kts 43°
2026-04-22 12:06 48.88209 18.83308 20841 ft 295 kts 43°
2026-04-22 12:07 48.89705 18.85401 20338 ft 290 kts 42°
2026-04-22 12:07 48.91190 18.87480 19851 ft 290 kts 42°
2026-04-22 12:07 48.92626 18.89574 19396 ft 290 kts 45°
2026-04-22 12:07 48.94097 18.91631 19227 ft 287 kts 40°
2026-04-22 12:08 48.95598 18.93648 19002 ft 289 kts 42°
2026-04-22 12:08 48.97078 18.95727 18764 ft 289 kts 42°
2026-04-22 12:08 48.98514 18.97846 18533 ft 286 kts 44°
2026-04-22 12:08 49.39303 19.58212 18473 ft 12238 kts 44°
2026-04-22 12:09 49.52833 19.78342 18472 ft 286 kts 44°
2026-04-22 12:09 49.54221 19.80539 18405 ft 287 kts 47°
2026-04-22 12:09 49.55683 19.82605 18284 ft 287 kts 31°
2026-04-22 12:09 49.57494 19.83832 17889 ft 288 kts 21°
2026-04-22 12:10 49.59374 19.84857 17430 ft 285 kts 20°
2026-04-22 12:10 49.61249 19.85828 16975 ft 283 kts 20°
2026-04-22 12:10 49.63110 19.86779 16526 ft 281 kts 20°
2026-04-22 12:10 49.64932 19.87842 16025 ft 280 kts 24°
2026-04-22 12:11 49.66700 19.89036 15446 ft 276 kts 25°
2026-04-22 12:11 49.68283 19.90639 14872 ft 273 kts 46°
2026-04-22 12:11 49.69458 19.92924 14342 ft 270 kts 53°
2026-04-22 12:11 49.70508 19.95264 13829 ft 266 kts 54°
2026-04-22 12:12 49.71508 19.97596 13393 ft 255 kts 55°
2026-04-22 12:12 49.72465 19.99878 12939 ft 251 kts 55°
2026-04-22 12:12 49.73392 20.02119 12437 ft 245 kts 56°
2026-04-22 12:12 49.74303 20.04332 11942 ft 244 kts 56°
2026-04-22 12:13 49.75258 20.06479 11440 ft 240 kts 45°
2026-04-22 12:13 49.76605 20.07960 10942 ft 236 kts 29°
2026-04-22 12:13 49.78030 20.09150 10479 ft 230 kts 27°
2026-04-22 12:13 49.79453 20.10270 10023 ft 229 kts 26°
2026-04-22 12:14 49.80860 20.11348 9517 ft 228 kts 25°
2026-04-22 12:14 49.82275 20.12442 9027 ft 227 kts 25°
2026-04-22 12:14 49.83681 20.13543 8532 ft 226 kts 25°
2026-04-22 12:14 49.85086 20.14648 8035 ft 226 kts 26°
2026-04-22 12:15 49.86483 20.15764 7581 ft 226 kts 25°
2026-04-22 12:15 49.87876 20.16888 7130 ft 225 kts 26°
2026-04-22 12:15 49.89247 20.18013 6769 ft 221 kts 26°
2026-04-22 12:15 49.90602 20.19131 6387 ft 219 kts 26°
2026-04-22 12:16 49.91921 20.20234 6000 ft 218 kts 25°
2026-04-22 12:16 49.93285 20.21179 5601 ft 213 kts 12°
2026-04-22 12:16 49.94735 20.21620 5228 ft 212 kts
2026-04-22 12:16 49.96187 20.21923 4920 ft 207 kts
2026-04-22 12:17 49.97578 20.22191 4718 ft 196 kts
2026-04-22 12:17 49.98904 20.22432 4523 ft 188 kts
2026-04-22 12:17 50.00180 20.22679 4334 ft 181 kts
2026-04-22 12:17 50.01379 20.22908 4203 ft 173 kts
2026-04-22 12:18 50.02580 20.23132 4142 ft 178 kts
2026-04-22 12:18 50.03794 20.23365 4147 ft 175 kts
2026-04-22 12:18 50.05020 20.23606 4150 ft 177 kts
2026-04-22 12:18 50.06231 20.23861 4165 ft 174 kts
2026-04-22 12:19 50.07446 20.24114 4152 ft 172 kts
2026-04-22 12:19 50.08614 20.24345 4136 ft 168 kts
2026-04-22 12:19 50.09769 20.24573 4148 ft 166 kts
2026-04-22 12:19 50.10920 20.24792 4143 ft 166 kts 359°
2026-04-22 12:20 50.11923 20.24161 4117 ft 160 kts 314°
2026-04-22 12:20 50.12683 20.22889 4145 ft 163 kts 323°
2026-04-22 12:20 50.13450 20.21602 4141 ft 165 kts 297°
2026-04-22 12:20 50.13487 20.19831 4125 ft 174 kts 260°
2026-04-22 12:21 50.13153 20.18007 4156 ft 175 kts 261°
2026-04-22 12:21 50.12937 20.16221 4134 ft 162 kts 265°
2026-04-22 12:21 50.12705 20.14516 4132 ft 160 kts 262°
2026-04-22 12:21 50.12466 20.12804 4133 ft 162 kts 264°
2026-04-22 12:22 50.12238 20.11070 4154 ft 163 kts 262°
2026-04-22 12:22 50.11997 20.09333 4147 ft 166 kts 261°
2026-04-22 12:22 50.11765 20.07610 4130 ft 163 kts 264°
2026-04-22 12:22 50.11529 20.05855 4061 ft 168 kts 264°
2026-04-22 12:23 50.11291 20.04126 3803 ft 158 kts 262°
2026-04-22 12:23 50.11069 20.02509 3564 ft 149 kts 263°
2026-04-22 12:23 50.10861 20.00949 3378 ft 146 kts 261°
2026-04-22 12:23 50.10645 19.99394 3226 ft 147 kts 262°
2026-04-22 12:24 50.10433 19.97827 3070 ft 147 kts 261°
2026-04-22 12:24 50.10220 19.96275 2907 ft 147 kts 262°
2026-04-22 12:24 50.10007 19.94714 2732 ft 147 kts 262°
2026-04-22 12:24 50.09799 19.93187 2535 ft 144 kts 261°
2026-04-22 12:25 50.09587 19.91674 2355 ft 142 kts 263°
2026-04-22 12:25 50.09379 19.90147 2154 ft 146 kts 263°
2026-04-22 12:25 50.09180 19.88605 1969 ft 143 kts 262°
2026-04-22 12:25 50.08956 19.87109 1772 ft 142 kts 261°
2026-04-22 12:26 50.08815 19.86124 1593 ft 138 kts 262°
2026-04-22 12:26 50.08568 19.84208 1375 ft 130 kts 264°
2026-04-22 12:26 50.08371 19.82820 1152 ft 137 kts 259°
2026-04-22 12:26 50.08165 19.81345 1028 ft 135 kts 265°
2026-04-22 12:27 50.07978 19.79945 821 ft 129 kts 259°
2026-04-22 12:27 50.07809 19.78745 801 ft 96 kts 256°
2026-04-22 12:27 50.07729 19.78170 797 ft 23 kts 256°
2026-04-22 12:27 50.07628 19.78092 798 ft 18 kts 182°
2026-04-22 12:28 50.07527 19.78086 798 ft 11 kts 179°
2026-04-22 12:28 50.07475 19.78142 798 ft 10 kts 95°
2026-04-22 12:28 50.07488 19.78255 798 ft 11 kts 76°
2026-04-22 12:28 50.07506 19.78385 799 ft 14 kts 77°
2026-04-22 12:29 50.07528 19.78547 799 ft 17 kts 78°
2026-04-22 12:29 50.07556 19.78748 799 ft 21 kts 78°
2026-04-22 12:29 50.07589 19.78984 799 ft 24 kts 79°
2026-04-22 12:29 50.07626 19.79253 799 ft 26 kts 76°
2026-04-22 12:30 50.07656 19.79692 799 ft 15 kts 150°
2026-04-22 12:30 50.07585 19.79721 799 ft 17 kts 167°
2026-04-22 12:30 50.07456 19.79763 799 ft 21 kts 168°
2026-04-22 12:31 50.07389 19.79787 799 ft 2 kts 149°
2026-04-22 12:31 50.07372 19.79840 799 ft 6 kts 114°
2026-04-22 12:31 50.07331 19.79874 799 ft 8 kts 169°
2026-04-22 12:31 50.07301 19.79884 799 ft 2 kts 167°
2026-04-22 12:32 50.07289 19.79888 799 ft 0 kts 167°
2026-04-22 12:32 50.07288 19.79888 799 ft 0 kts 167°